RYR9624 EGPK-EGPH

Flight info

Callsign RYR9624
Flight time 0h 15m
Altitude 7000
Route SUMIN DCT TARTN
Aircraft B738/M-SDE2E3FGHIRWXY/LB1

Departure

Time 2026-04-23 23:15
Airport Glasgow Prestwick Airport (EGPK)

Arrival

Time 2026-04-23 23:30
Airport Edinburgh Airport (EGPH)
Time Latitude Longitude Altitude Speed Heading
2026-04-23 23:04 55.50611 -4.59623 74 ft 0 kts 88°
2026-04-23 23:11 55.50611 -4.59611 74 ft 4 kts 88°
2026-04-23 23:11 55.50618 -4.59520 74 ft 11 kts 71°
2026-04-23 23:11 55.50661 -4.59364 74 ft 17 kts 58°
2026-04-23 23:11 55.50712 -4.59384 74 ft 11 kts 301°
2026-04-23 23:12 55.50767 -4.59543 74 ft 19 kts 301°
2026-04-23 23:12 55.50849 -4.59779 74 ft 26 kts 301°
2026-04-23 23:12 55.50959 -4.60097 74 ft 33 kts 301°
2026-04-23 23:12 55.51075 -4.60433 74 ft 20 kts 301°
2026-04-23 23:13 55.51147 -4.60639 74 ft 21 kts 301°
2026-04-23 23:13 55.51229 -4.60876 74 ft 20 kts 301°
2026-04-23 23:13 55.51299 -4.60997 74 ft 12 kts 15°
2026-04-23 23:13 55.51329 -4.60866 74 ft 14 kts 81°
2026-04-23 23:14 55.51345 -4.60681 74 ft 17 kts 87°
2026-04-23 23:14 55.51285 -4.60459 74 ft 37 kts 121°
2026-04-23 23:14 55.50990 -4.59607 74 ft 124 kts 121°
2026-04-23 23:14 55.50451 -4.58049 506 ft 165 kts 121°
2026-04-23 23:15 55.49804 -4.56182 1303 ft 186 kts 121°
2026-04-23 23:15 55.49132 -4.54239 2152 ft 186 kts 121°
2026-04-23 23:15 55.48444 -4.52286 2989 ft 188 kts 122°
2026-04-23 23:15 55.47710 -4.50338 3808 ft 195 kts 124°
2026-04-23 23:16 55.46889 -4.48365 4675 ft 200 kts 128°
2026-04-23 23:16 55.46005 -4.46461 5485 ft 208 kts 132°
2026-04-23 23:16 55.44993 -4.44466 6015 ft 231 kts 129°
2026-04-23 23:16 55.44341 -4.41735 6534 ft 255 kts 103°
2026-04-23 23:17 55.44396 -4.38503 6930 ft 275 kts 80°
2026-04-23 23:17 55.45022 -4.35290 6997 ft 281 kts 68°
2026-04-23 23:17 55.45884 -4.32195 7003 ft 281 kts 63°
2026-04-23 23:17 55.46816 -4.29200 7000 ft 280 kts 62°
2026-04-23 23:18 55.47460 -4.27204 7001 ft 279 kts 61°
2026-04-23 23:18 55.48758 -4.23264 6999 ft 279 kts 59°
2026-04-23 23:18 55.50035 -4.20719 7012 ft 280 kts 42°
2026-04-23 23:18 55.51081 -4.19278 7013 ft 281 kts 36°
2026-04-23 23:19 55.53237 -4.16762 7009 ft 281 kts 32°
2026-04-23 23:19 55.54350 -4.15551 7010 ft 281 kts 31°
2026-04-23 23:19 55.56033 -4.13756 7010 ft 280 kts 31°
2026-04-23 23:19 55.57686 -4.12009 7012 ft 280 kts 31°
2026-04-23 23:20 55.59376 -4.10228 7013 ft 280 kts 31°
2026-04-23 23:20 55.61035 -4.08478 7013 ft 280 kts 31°
2026-04-23 23:20 55.62723 -4.06695 7014 ft 280 kts 31°
2026-04-23 23:20 55.64392 -4.04931 7015 ft 280 kts 31°
2026-04-23 23:21 55.66069 -4.03145 7016 ft 280 kts 32°
2026-04-23 23:21 55.67687 -4.01248 7019 ft 280 kts 34°
2026-04-23 23:21 55.69292 -3.99260 7020 ft 280 kts 35°
2026-04-23 23:21 55.70876 -3.97258 6896 ft 283 kts 36°
2026-04-23 23:22 55.72456 -3.95245 6697 ft 281 kts 36°
2026-04-23 23:22 55.74050 -3.93212 6449 ft 275 kts 36°
2026-04-23 23:22 55.75537 -3.91318 6193 ft 257 kts 36°
2026-04-23 23:22 55.76878 -3.89382 5939 ft 243 kts 45°
2026-04-23 23:23 55.77969 -3.87149 5690 ft 232 kts 53°
2026-04-23 23:23 55.78888 -3.84846 5441 ft 223 kts 57°
2026-04-23 23:23 55.79706 -3.82576 5190 ft 216 kts 59°
2026-04-23 23:23 55.80480 -3.80322 4933 ft 210 kts 60°
2026-04-23 23:24 55.81216 -3.78137 4680 ft 205 kts 60°
2026-04-23 23:24 55.81945 -3.75967 4426 ft 201 kts 60°
2026-04-23 23:24 55.82647 -3.73878 4178 ft 197 kts 60°
2026-04-23 23:24 55.83348 -3.71796 3926 ft 194 kts 59°
2026-04-23 23:25 55.84043 -3.69734 3676 ft 192 kts 59°
2026-04-23 23:25 55.84721 -3.67726 3424 ft 190 kts 59°
2026-04-23 23:25 55.85402 -3.65710 3174 ft 188 kts 59°
2026-04-23 23:25 55.86073 -3.63727 2923 ft 187 kts 59°
2026-04-23 23:26 55.86742 -3.61743 2675 ft 185 kts 59°
2026-04-23 23:26 55.87405 -3.59778 2484 ft 182 kts 59°
2026-04-23 23:26 55.88048 -3.57872 2308 ft 180 kts 59°
2026-04-23 23:26 55.88696 -3.55947 2154 ft 179 kts 59°
2026-04-23 23:27 55.89332 -3.54063 2034 ft 179 kts 59°
2026-04-23 23:27 55.89971 -3.52175 1912 ft 170 kts 59°
2026-04-23 23:27 55.90516 -3.50567 1807 ft 140 kts 59°
2026-04-23 23:27 55.91013 -3.49095 1598 ft 139 kts 59°
2026-04-23 23:28 55.91508 -3.47629 1358 ft 135 kts 59°
2026-04-23 23:28 55.91991 -3.46194 1181 ft 136 kts 59°
2026-04-23 23:28 55.92474 -3.44764 997 ft 133 kts 59°
2026-04-23 23:28 55.92946 -3.43359 778 ft 130 kts 59°
2026-04-23 23:29 55.93402 -3.42005 604 ft 127 kts 59°
2026-04-23 23:29 55.93855 -3.40659 423 ft 125 kts 59°
2026-04-23 23:29 55.94298 -3.39345 266 ft 121 kts 59°
2026-04-23 23:29 55.94719 -3.38093 144 ft 112 kts 59°
2026-04-23 23:30 55.95020 -3.37194 144 ft 56 kts 59°
2026-04-23 23:30 55.95195 -3.36672 144 ft 37 kts 59°
2026-04-23 23:30 55.95257 -3.36436 144 ft 12 kts 109°
2026-04-23 23:30 55.95213 -3.36368 144 ft 7 kts 150°
2026-04-23 23:31 55.95149 -3.36293 144 ft 11 kts 127°
2026-04-23 23:31 55.95167 -3.36184 144 ft 11 kts 58°
2026-04-23 23:31 55.95222 -3.36017 144 ft 14 kts 71°
2026-04-23 23:31 55.95192 -3.35968 144 ft 10 kts 149°
2026-04-23 23:32 55.95127 -3.35882 144 ft 11 kts 117°
2026-04-23 23:32 55.95078 -3.35784 144 ft 11 kts 166°
2026-04-23 23:32 55.95033 -3.35814 144 ft 5 kts 208°
2026-04-23 23:32 55.94991 -3.35855 144 ft 9 kts 208°
2026-04-23 23:33 55.94935 -3.35857 144 ft 9 kts 133°
2026-04-23 23:33 55.94899 -3.35746 144 ft 12 kts 118°
2026-04-23 23:33 55.94867 -3.35644 144 ft 6 kts 130°
2026-04-23 23:33 55.94837 -3.35645 144 ft 5 kts 208°
2026-04-23 23:34 55.94802 -3.35680 144 ft 3 kts 209°
2026-04-23 23:34 55.94800 -3.35681 144 ft 0 kts 209°